| time (UTC) | temp F | wind direction | speed MPH | gust MPH | rain 1hr in | rain 24hr in | rain mn in | humidity % | barometer mb |
| 20260904200002 | 66 | 158 | 2.0 | 5.0 | 0.00 | 0.34 | 0.15 | 65 | 1015.7 |
| 20260904194502 | 64 | 218 | 0.0 | 3.0 | 0.00 | 0.34 | 0.15 | 70 | 1015.9 |
| 20260904193101 | 64 | 65 | 0.0 | 6.0 | 0.00 | 0.34 | 0.15 | 71 | 1016.2 |
| 20260904191600 | 64 | 21 | 0.0 | 3.0 | 0.00 | 0.34 | 0.15 | 70 | 1016.4 |
| 20260904190003 | 64 | 107 | 2.0 | 4.0 | 0.00 | 0.34 | 0.15 | 72 | 1016.3 |
| 20260904184600 | 63 | 169 | 3.0 | 8.0 | 0.00 | 0.34 | 0.15 | 72 | 1016.3 |
| 20260904183115 | 63 | 191 | 0.0 | 4.0 | 0.00 | 0.34 | 0.15 | 73 | 1016.3 |
| 20260904183000 | 63 | 87 | 1.0 | 4.0 | 0.00 | 0.34 | 0.15 | 72 | 1016.3 |
| 20260904181610 | 63 | 83 | 1.0 | 6.0 | 0.00 | 0.34 | 0.15 | 77 | 1016.3 |
| 20260904181503 | 63 | 88 | 2.0 | 6.0 | 0.00 | 0.34 | 0.15 | 77 | 1016.3 |
| 20260904180101 | 62 | 145 | 1.0 | 6.0 | 0.00 | 0.34 | 0.15 | 81 | 1016.3 |
| 20260904180003 | 62 | 116 | 1.0 | 6.0 | 0.00 | 0.34 | 0.15 | 82 | 1016.3 |
| 20260904174502 | 61 | 21 | 1.0 | 8.0 | 0.00 | 0.34 | 0.15 | 85 | 1016.3 |
| 20260904173002 | 59 | 63 | 0.0 | 3.0 | 0.00 | 0.34 | 0.15 | 89 | 1016.1 |
| 20260904171501 | 58 | 85 | 0.0 | 3.0 | 0.00 | 0.34 | 0.15 | 89 | 1016.1 |
| 20260904170002 | 58 | 175 | 0.0 | 2.0 | 0.00 | 0.34 | 0.15 | 91 | 1015.9 |
| 20260904164604 | 58 | 33 | 0.0 | 3.0 | 0.00 | 0.34 | 0.15 | 90 | 1015.7 |
| 20260904163101 | 57 | 51 | 0.0 | 2.0 | 0.00 | 0.34 | 0.15 | 92 | 1015.7 |
| 20260904161600 | 57 | 304 | 0.0 | 3.0 | 0.00 | 0.34 | 0.15 | 93 | 1015.6 |
| 20260904160004 | 57 | 37 | 1.0 | 3.0 | 0.00 | 0.34 | 0.15 | 93 | 1015.6 |
| 20260904154502 | 57 | 160 | 0.0 | 3.0 | 0.00 | 0.34 | 0.15 | 94 | 1015.6 |
| 20260904153004 | 57 | 131 | 0.0 | 2.0 | 0.00 | 0.34 | 0.15 | 94 | 1015.4 |
| 20260904151502 | 57 | 57 | 0.0 | 2.0 | 0.00 | 0.34 | 0.15 | 94 | 1015.4 |
| 20260904150002 | 57 | 41 | 1.0 | 4.0 | 0.00 | 0.34 | 0.15 | 94 | 1015.2 |
| 20260904144601 | 57 | 79 | 0.0 | 1.0 | 0.01 | 0.34 | 0.15 | 94 | 1015.0 |
| 20260904143130 | 57 | 159 | 0.0 | 2.0 | 0.01 | 0.34 | 0.15 | 94 | 1014.6 |
| 20260904143001 | 57 | 159 | 0.0 | 2.0 | 0.01 | 0.34 | 0.15 | 94 | 1014.6 |
| 20260904141608 | 57 | 174 | 0.0 | 1.0 | 0.01 | 0.34 | 0.15 | 94 | 1014.4 |
| 20260904141501 | 57 | 195 | 0.0 | 1.0 | 0.01 | 0.34 | 0.15 | 94 | 1014.4 |
| 20260904140100 | 57 | 196 | 0.0 | 2.0 | 0.01 | 0.34 | 0.15 | 94 | 1014.3 |
| 20260904140001 | 57 | 213 | 0.0 | 2.0 | 0.01 | 0.34 | 0.15 | 94 | 1014.4 |
| 20260904134606 | 57 | 75 | 0.0 | 0.0 | 0.00 | 0.33 | 0.14 | 94 | 1014.2 |
| 20260904133101 | 57 | 75 | 0.0 | 0.0 | 0.00 | 0.33 | 0.14 | 94 | 1014.1 |
| 20260904131611 | 57 | 20 | 0.0 | 1.0 | 0.00 | 0.33 | 0.14 | 94 | 1014.0 |
| 20260904131501 | 57 | 20 | 0.0 | 1.0 | 0.00 | 0.33 | 0.14 | 94 | 1014.0 |
| 20260904130003 | 57 | 2 | 0.0 | 3.0 | 0.00 | 0.33 | 0.14 | 94 | 1013.9 |
| 20260904124603 | 57 | 103 | 0.0 | 2.0 | 0.00 | 0.33 | 0.14 | 94 | 1013.8 |
| 20260904123001 | 58 | 27 | 0.0 | 3.0 | 0.00 | 0.33 | 0.14 | 94 | 1013.7 |
| 20260904121601 | 57 | 46 | 0.0 | 0.0 | 0.00 | 0.33 | 0.14 | 94 | 1013.6 |
| 20260904120004 | 57 | 59 | 0.0 | 0.0 | 0.01 | 0.33 | 0.14 | 94 | 1013.6 |
| 20260904114502 | 57 | 62 | 0.0 | 1.0 | 0.01 | 0.33 | 0.14 | 94 | 1013.4 |
| 20260904113100 | 57 | 113 | 0.0 | 1.0 | 0.02 | 0.33 | 0.14 | 94 | 1013.4 |
| 20260904111603 | 57 | 189 | 0.0 | 0.0 | 0.03 | 0.33 | 0.14 | 93 | 1013.5 |
| 20260904110100 | 57 | 150 | 0.0 | 2.0 | 0.02 | 0.32 | 0.13 | 93 | 1013.4 |
| 20260904110001 | 57 | 150 | 0.0 | 2.0 | 0.02 | 0.32 | 0.13 | 93 | 1013.3 |
| 20260904104600 | 58 | 126 | 0.0 | 2.0 | 0.03 | 0.32 | 0.13 | 94 | 1013.1 |
| 20260904103101 | 59 | 121 | 0.0 | 2.0 | 0.02 | 0.31 | 0.12 | 94 | 1013.3 |
| 20260904103003 | 59 | 121 | 0.0 | 2.0 | 0.02 | 0.31 | 0.12 | 94 | 1013.2 |
| 20260904101501 | 59 | 170 | 0.0 | 3.0 | 0.02 | 0.30 | 0.11 | 94 | 1013.2 |
| 20260904100100 | 59 | 347 | 0.0 | 1.0 | 0.04 | 0.30 | 0.11 | 94 | 1013.1 |
| 20260904100003 | 59 | 347 | 0.0 | 1.0 | 0.05 | 0.30 | 0.11 | 94 | 1013.1 |
| 20260904094502 | 59 | 97 | 0.0 | 2.0 | 0.05 | 0.28 | 0.10 | 94 | 1012.9 |
| 20260904090002 | 59 | 164 | 0.0 | 2.0 | 0.04 | 0.25 | 0.06 | 94 | 1013.2 |
| 20260904084611 | 60 | 224 | 0.0 | 2.0 | 0.04 | 0.24 | 0.05 | 94 | 1013.3 |
| 20260904083102 | 60 | 117 | 0.0 | 3.0 | 0.02 | 0.22 | 0.03 | 94 | 1013.1 |
| 20260904081505 | 60 | 31 | 1.0 | 3.0 | 0.01 | 0.21 | 0.02 | 94 | 1013.1 |
| 20260904080002 | 60 | 99 | 0.0 | 1.0 | 0.02 | 0.21 | 0.02 | 94 | 1013.2 |
| 20260904074614 | 60 | 88 | 0.0 | 2.0 | 0.02 | 0.20 | 0.01 | 94 | 1013.2 |
| 20260904073003 | 60 | 131 | 0.0 | 2.0 | 0.02 | 0.20 | 0.01 | 94 | 1013.3 |
| 20260904071502 | 60 | 158 | 0.0 | 2.0 | 0.02 | 0.20 | 0.01 | 94 | 1013.3 |
| 20260904070104 | 60 | 124 | 0.0 | 2.0 | 0.02 | 0.19 | 0.00 | 94 | 1013.3 |
| 20260904064509 | 60 | 164 | 0.0 | 2.0 | 0.05 | 0.18 | 0.18 | 94 | 1013.3 |
| 20260904063008 | 60 | 156 | 0.0 | 1.0 | 0.08 | 0.18 | 0.18 | 93 | 1013.4 |
| 20260904061503 | 60 | 191 | 0.0 | 2.0 | 0.10 | 0.18 | 0.18 | 93 | 1013.4 |
| 20260904060002 | 60 | 160 | 0.0 | 2.0 | 0.12 | 0.17 | 0.17 | 93 | 1013.3 |
| 20260904054502 | 60 | 206 | 0.0 | 2.0 | 0.08 | 0.13 | 0.13 | 92 | 1013.4 |
| 20260904053006 | 61 | 189 | 0.0 | 2.0 | 0.06 | 0.10 | 0.10 | 93 | 1013.5 |
| 20260904051505 | 61 | 195 | 0.0 | 2.0 | 0.06 | 0.08 | 0.08 | 92 | 1013.6 |
| 20260904050006 | 61 | 44 | 0.0 | 1.0 | 0.04 | 0.05 | 0.05 | 92 | 1013.6 |
| 20260904044501 | 61 | 73 | 0.0 | 1.0 | 0.05 | 0.05 | 0.05 | 92 | 1013.6 |
| 20260904043003 | 61 | 178 | 0.0 | 1.0 | 0.04 | 0.04 | 0.04 | 91 | 1013.6 |
| 20260904041505 | 61 | 204 | 0.0 | 0.0 | 0.02 | 0.02 | 0.02 | 91 | 1013.6 |
| 20260904040003 | 61 | 204 | 0.0 | 0.0 | 0.01 | 0.01 | 0.01 | 90 | 1013.6 |
| 20260904034503 | 61 | 204 | 0.0 | 1.0 | 0.00 | 0.00 | 0.00 | 89 | 1013.5 |
| 20260904033003 | 62 | 204 | 0.0 | 0.0 | 0.00 | 0.00 | 0.00 | 87 | 1013.4 |
| 20260904031501 | 62 | 204 | 0.0 | 2.0 | 0.00 | 0.00 | 0.00 | 86 | 1013.4 |
| 20260904030003 | 63 | 215 | 0.0 | 2.0 | 0.00 | 0.00 | 0.00 | 83 | 1013.3 |
| 20260904024502 | 63 | 189 | 1.0 | 4.0 | 0.00 | 0.00 | 0.00 | 81 | 1013.4 |
| 20260904023002 | 64 | 182 | 0.0 | 2.0 | 0.00 | 0.00 | 0.00 | 80 | 1013.3 |
| 20260904021503 | 64 | 158 | 1.0 | 3.0 | 0.00 | 0.00 | 0.00 | 79 | 1013.4 |
| 20260904020106 | 65 | 160 | 0.0 | 3.0 | 0.00 | 0.00 | 0.00 | 76 | 1013.3 |
| 20260904014503 | 65 | 160 | 0.0 | 3.0 | 0.00 | 0.00 | 0.00 | 74 | 1013.3 |
| 20260904013002 | 66 | 222 | 1.0 | 3.0 | 0.00 | 0.00 | 0.00 | 73 | 1013.4 |
| 20260904011502 | 66 | 202 | 1.0 | 4.0 | 0.00 | 0.00 | 0.00 | 72 | 1013.5 |
| 20260904010009 | 67 | 181 | 1.0 | 3.0 | 0.00 | 0.00 | 0.00 | 71 | 1013.6 |
| 20260904004503 | 67 | 158 | 1.0 | 3.0 | 0.00 | 0.00 | 0.00 | 71 | 1013.6 |
| 20260904003002 | 67 | 239 | 1.0 | 3.0 | 0.00 | 0.00 | 0.00 | 71 | 1013.8 |
| 20260904001502 | 67 | 206 | 1.0 | 8.0 | 0.00 | 0.00 | 0.00 | 71 | 1013.7 |
| 20260904000003 | 67 | 92 | 1.0 | 3.0 | 0.00 | 0.00 | 0.00 | 70 | 1013.7 |
| 20260903234502 | 66 | 172 | 0.0 | 7.0 | 0.00 | 0.00 | 0.00 | 71 | 1013.9 |
| 20260903233003 | 67 | 152 | 0.0 | 3.0 | 0.00 | 0.00 | 0.00 | 71 | 1013.9 |
| 20260903231502 | 67 | 158 | 1.0 | 4.0 | 0.00 | 0.00 | 0.00 | 69 | 1014.0 |
| 20260903230004 | 67 | 160 | 1.0 | 4.0 | 0.00 | 0.00 | 0.00 | 69 | 1014.1 |
| 20260903224504 | 67 | 130 | 0.0 | 3.0 | 0.00 | 0.00 | 0.00 | 69 | 1014.4 |
| 20260903223002 | 67 | 145 | 1.0 | 3.0 | 0.00 | 0.00 | 0.00 | 69 | 1014.4 |
| 20260903221503 | 67 | 88 | 1.0 | 3.0 | 0.00 | 0.00 | 0.00 | 69 | 1014.6 |
| 20260903220008 | 67 | 166 | 1.0 | 5.0 | 0.00 | 0.00 | 0.00 | 69 | 1014.7 |
| 20260903214504 | 67 | 259 | 2.0 | 5.0 | 0.00 | 0.00 | 0.00 | 68 | 1014.9 |
| 20260903213002 | 67 | 208 | 1.0 | 4.0 | 0.00 | 0.00 | 0.00 | 67 | 1014.8 |
| 20260903211503 | 67 | 181 | 2.0 | 4.0 | 0.00 | 0.00 | 0.00 | 66 | 1014.9 |
| 20260903210003 | 68 | 162 | 1.0 | 4.0 | 0.00 | 0.00 | 0.00 | 66 | 1015.0 |
| 20260903204505 | 67 | 100 | 1.0 | 5.0 | 0.00 | 0.00 | 0.00 | 66 | 1015.0 |
| 20260903203003 | 67 | 175 | 1.0 | 5.0 | 0.00 | 0.00 | 0.00 | 66 | 1015.1 |
| 20260903201504 | 67 | 79 | 1.0 | 4.0 | 0.00 | 0.00 | 0.00 | 67 | 1015.2 |